Location: Demre
(36.2444°N, 29.9850°E)
Time: 06:05:49
(UTC+00:00)

Cosmos 1992 Rocket - Pass Details

Date: 11 March 2026
Orbit: 754 x 761 km, 74.0° (Epoch: 21 April)

Event Time Altitude Azimuth Distance (km) Brightness Sun altitude
Rises 16:31:33 0° 347° (NNW) 3,228 7.4 -6.4°
Reaches altitude 10° 16:34:00 10° 352° (N) 2,299 6.6 -6.9°
Maximum altitude 16:39:05 52° 69° (ENE) 937 4.1 -7.9°
Drops below altitude 10° 16:44:08 10° 146° (SE) 2,284 6.1 -9.0°
Sets 16:46:33 0° 151° (SSE) 3,205 6.9 -9.4°
